FW9607 Weather Reports


Display with metric or nautical units.
time (UTC)temp
F
wind
direction
speed
MPH
gust
MPH
rain 1hr
in
rain 24hr
in
rain mn
in
humidity
%
barometer
mb
20260902135002 83 172 4.0 7.0 0.00 0.00 0.00 84 1013.3
20260902134506 83 190 4.0 7.0 0.00 0.00 0.00 85 1013.3
20260902134002 83 183 4.0 6.0 0.00 0.00 0.00 85 1013.3
20260902133506 82 175 4.0 7.0 0.00 0.00 0.00 86 1013.4
20260902133002 82 177 4.0 7.0 0.00 0.00 0.00 87 1013.3
20260902131500 81 171 4.0 5.0 0.00 0.00 0.00 88 1013.2
20260902131001 81 163 4.0 5.0 0.00 0.00 0.00 89 1013.1
20260902125948 80 148 4.0 5.0 0.00 0.00 0.00 90 1013.1
20260902124934 80 158 3.0 4.0 0.00 0.00 0.00 91 1013.0
20260902123934 80 152 4.0 5.0 0.00 0.00 0.00 91 1012.9
20260902123438 80 155 4.0 7.0 0.00 0.00 0.00 91 1012.9
20260902122933 80 174 5.0 7.0 0.00 0.00 0.00 91 1012.8
20260902122437 80 163 5.0 6.0 0.00 0.00 0.00 91 1012.8
20260902121933 80 166 5.0 7.0 0.00 0.00 0.00 91 1012.8
20260902121437 80 166 5.0 7.0 0.00 0.00 0.00 91 1012.7
20260902120934 80 162 5.0 7.0 0.00 0.00 0.00 91 1012.7
20260902120437 80 176 5.0 7.0 0.00 0.00 0.00 91 1012.8
20260902115934 80 173 5.0 7.0 0.00 0.00 0.00 91 1012.8
20260902114933 80 170 4.0 6.0 0.00 0.00 0.00 91 1012.7
20260902114437 80 180 4.0 6.0 0.00 0.00 0.00 91 1012.6
20260902113920 80 167 5.0 7.0 0.00 0.00 0.00 91 1012.6
20260902112910 80 174 5.0 6.0 0.00 0.00 0.00 91 1012.5
20260902111910 80 187 4.0 7.0 0.00 0.00 0.00 91 1012.6
20260902111405 80 178 3.0 5.0 0.00 0.00 0.00 91 1012.6
20260902110902 80 172 3.0 4.0 0.00 0.00 0.00 91 1012.7
20260902105402 80 157 3.0 5.0 0.00 0.00 0.00 91 1012.8
20260902104352 80 160 4.0 6.0 0.00 0.00 0.00 91 1012.6
20260902103853 80 155 4.0 6.0 0.00 0.00 0.00 91 1012.6
20260902103352 80 175 4.0 6.0 0.00 0.00 0.00 91 1012.6
20260902102849 80 180 4.0 6.0 0.00 0.00 0.00 91 1012.6
20260902102349 80 175 3.0 5.0 0.00 0.00 0.00 91 1012.6
20260902101850 80 176 3.0 4.0 0.00 0.00 0.00 91 1012.6
20260902101336 80 167 3.0 4.0 0.00 0.00 0.00 90 1012.6
20260902100836 80 167 2.0 3.0 0.00 0.00 0.00 90 1012.5
20260902095841 80 187 2.0 4.0 0.00 0.00 0.00 90 1012.5
20260902095339 80 184 2.0 4.0 0.00 0.00 0.00 90 1012.5
20260902094837 80 163 2.0 4.0 0.00 0.00 0.00 90 1012.5
20260902094336 80 175 2.0 3.0 0.00 0.00 0.00 90 1012.6
20260902093836 81 167 2.0 3.0 0.00 0.00 0.00 90 1012.6
20260902093320 81 169 2.0 3.0 0.00 0.00 0.00 90 1012.6
20260902092820 81 165 2.0 3.0 0.00 0.00 0.00 90 1012.6
20260902092321 81 180 2.0 3.0 0.00 0.00 0.00 90 1012.5
20260902091820 81 168 2.0 3.0 0.00 0.00 0.00 90 1012.6
20260902090821 81 167 2.0 3.0 0.00 0.00 0.00 89 1012.6
20260902090305 81 180 2.0 3.0 0.00 0.00 0.00 89 1012.7
20260902085806 81 183 2.0 3.0 0.00 0.00 0.00 89 1012.7
20260902085306 81 191 2.0 3.0 0.00 0.00 0.00 89 1012.7
20260902084806 81 169 2.0 3.0 0.00 0.00 0.00 89 1012.7
20260902084306 81 164 3.0 5.0 0.00 0.00 0.00 89 1012.8
20260902083806 81 199 3.0 5.0 0.00 0.00 0.00 89 1012.8
20260902083306 81 182 4.0 7.0 0.00 0.00 0.00 89 1012.7
20260902082806 81 182 4.0 7.0 0.00 0.00 0.00 89 1012.7
20260902082309 81 181 4.0 6.0 0.00 0.00 0.00 89 1012.7
20260902081806 81 160 4.0 6.0 0.00 0.00 0.00 89 1012.7
20260902081311 82 183 3.0 4.0 0.00 0.00 0.00 88 1012.8
20260902080806 82 187 2.0 4.0 0.00 0.00 0.00 88 1012.9
20260902080310 82 185 2.0 4.0 0.00 0.00 0.00 88 1012.9
20260902075806 82 189 2.0 3.0 0.00 0.00 0.00 88 1013.0
20260902075255 82 165 2.0 4.0 0.00 0.00 0.00 88 1013.0
20260902074753 82 155 2.0 4.0 0.00 0.00 0.00 88 1013.0
20260902073738 82 177 3.0 5.0 0.00 0.00 0.00 88 1013.0
20260902073242 82 176 3.0 5.0 0.00 0.00 0.00 88 1013.0
20260902072237 82 182 3.0 5.0 0.00 0.00 0.00 87 1013.1
20260902071237 82 182 3.0 6.0 0.00 0.00 0.00 87 1013.1
20260902070725 82 160 3.0 6.0 0.00 0.00 0.00 87 1013.1
20260902070222 82 189 2.0 5.0 0.00 0.00 0.00 87 1013.2
20260902065722 82 173 2.0 2.0 0.00 0.00 0.00 87 1013.2
20260902065222 82 158 2.0 3.0 0.00 0.00 0.00 86 1013.3
20260902064723 82 151 2.0 3.0 0.00 0.00 0.00 86 1013.3
20260902064223 82 200 2.0 3.0 0.00 0.00 0.00 86 1013.2
20260902063223 82 192 3.0 5.0 0.00 0.00 0.00 86 1013.3
20260902062713 82 180 3.0 5.0 0.00 0.00 0.00 86 1013.2
20260902062208 82 185 3.0 5.0 0.00 0.00 0.00 86 1013.2
20260902061708 82 148 3.0 5.0 0.00 0.00 0.00 86 1013.2
20260902061208 82 189 2.0 4.0 0.00 0.00 0.00 85 1013.1
20260902060708 82 179 2.0 3.0 0.00 0.00 0.00 85 1013.2
20260902060208 82 187 2.0 4.0 0.00 0.00 0.00 85 1013.2
20260902055708 82 126 2.0 4.0 0.00 0.00 0.00 85 1013.2
20260902055208 82 184 2.0 4.0 0.00 0.00 0.00 85 1013.2
20260902054714 83 178 2.0 4.0 0.00 0.00 0.00 85 1013.2
20260902054210 83 169 2.0 4.0 0.00 0.00 0.00 84 1013.2
20260902053714 83 166 1.0 3.0 0.00 0.00 0.00 84 1013.2
20260902053209 83 185 1.0 2.0 0.00 0.00 0.00 84 1013.2
20260902052209 83 82 1.0 2.0 0.00 0.00 0.00 84 1013.2
20260902051709 83 133 1.0 2.0 0.00 0.00 0.00 84 1013.2
20260902051209 83 149 1.0 2.0 0.00 0.00 0.00 84 1013.1
20260902050709 83 136 1.0 2.0 0.00 0.00 0.00 83 1013.1
20260902050154 83 151 1.0 2.0 0.00 0.00 0.00 83 1013.0
20260902045656 83 154 1.0 2.0 0.00 0.00 0.00 83 1013.0
20260902045140 84 163 1.0 4.0 0.00 0.00 0.00 83 1013.0
20260902044139 84 258 2.0 4.0 0.00 0.00 0.00 82 1013.0
20260902043139 84 164 2.0 3.0 0.00 0.00 0.00 82 1013.1
20260902042639 84 156 2.0 3.0 0.00 0.00 0.00 82 1013.0
20260902041640 84 132 2.0 3.0 0.00 0.00 0.00 82 1013.1
20260902041139 84 159 2.0 3.0 0.00 0.00 0.00 82 1013.0
20260902040639 84 168 2.0 3.0 0.00 0.00 0.00 82 1013.0
20260902040124 84 124 2.0 3.0 0.00 0.00 0.00 81 1013.0
20260902035625 84 177 2.0 4.0 0.00 0.00 0.00 81 1012.9
20260902035125 84 118 2.0 4.0 0.00 0.00 0.00 81 1012.9
20260902034625 85 162 2.0 4.0 0.00 0.00 0.00 81 1012.8
20260902034125 85 160 2.0 5.0 0.00 0.00 0.00 81 1012.8
20260902033625 85 143 2.0 5.0 0.00 0.00 0.00 81 1012.8
20260902033119 85 107 2.0 5.0 0.00 0.00 0.00 81 1012.8
20260902032120 85 136 2.0 7.0 0.00 0.00 0.00 80 1012.6
20260902031618 85 137 2.0 7.0 0.00 0.00 0.00 80 1012.5
20260902030614 85 101 3.0 7.0 0.00 0.00 0.00 80 1012.4
20260902030114 85 134 2.0 6.0 0.00 0.00 0.00 80 1012.3
20260902025614 85 145 2.0 6.0 0.00 0.00 0.00 80 1012.3
20260902024115 85 162 2.0 7.0 0.00 0.00 0.00 80 1012.1
20260902023614 85 125 2.0 7.0 0.00 0.00 0.00 79 1012.0
20260902023115 85 139 3.0 8.0 0.00 0.00 0.00 79 1011.9
20260902022614 85 137 2.0 8.0 0.00 0.00 0.00 79 1011.8
20260902022114 86 0 2.0 5.0 0.00 0.00 0.00 78 1011.7
20260902021614 86 83 2.0 5.0 0.00 0.00 0.00 78 1011.6
20260902021111 86 143 2.0 7.0 0.00 0.00 0.00 77 1011.6
20260902020116 86 102 2.0 8.0 0.00 0.00 0.00 77 1011.4
20260902015114 86 138 2.0 6.0 0.00 0.00 0.00 76 1011.2
20260902014610 86 135 2.0 6.0 0.00 0.00 0.00 76 1011.2
20260902013610 87 115 3.0 6.0 0.00 0.00 0.00 75 1011.2
20260902013114 87 143 3.0 6.0 0.00 0.00 0.00 75 1011.2
20260902012115 87 116 3.0 11.0 0.00 0.00 0.00 75 1011.1
20260902011610 87 133 3.0 8.0 0.00 0.00 0.00 74 1011.1
20260902010127 87 114 3.0 8.0 0.00 0.00 0.00 72 1011.0
20260902005610 88 120 3.0 8.0 0.00 0.00 0.00 73 1011.0
20260902004610 88 130 4.0 12.0 0.00 0.00 0.00 72 1011.0
20260902003610 88 77 4.0 10.0 0.00 0.00 0.00 71 1011.0
20260902003110 88 88 4.0 10.0 0.00 0.00 0.00 71 1011.0
20260902002610 89 126 4.0 10.0 0.00 0.00 0.00 71 1011.0
20260902002110 89 270 4.0 10.0 0.00 0.00 0.00 69 1010.9
20260902001610 89 124 4.0 9.0 0.00 0.00 0.00 69 1010.9
20260902001110 89 97 4.0 11.0 0.00 0.00 0.00 68 1010.9
20260902000119 90 146 4.0 11.0 0.00 0.00 0.00 68 1010.9
20260901235610 90 129 4.0 10.0 0.00 0.00 0.00 68 1010.9
20260901235110 90 97 4.0 11.0 0.00 0.00 0.00 67 1010.9
20260901234610 90 98 4.0 11.0 0.00 0.00 0.00 68 1010.8
20260901234110 91 198 4.0 8.0 0.00 0.00 0.00 68 1010.7
20260901233105 91 129 5.0 11.0 0.00 0.00 0.00 67 1010.7
20260901232601 91 131 4.0 10.0 0.00 0.00 0.00 67 1010.6
20260901232102 92 81 4.0 10.0 0.00 0.00 0.00 64 1010.5
20260901231102 93 115 4.0 12.0 0.00 0.00 0.00 61 1010.6
20260901230602 93 151 4.0 10.0 0.00 0.00 0.00 60 1010.5
20260901225602 93 168 5.0 9.0 0.00 0.00 0.00 59 1010.5
20260901225102 94 115 5.0 11.0 0.00 0.00 0.00 58 1010.5
20260901224602 94 113 5.0 11.0 0.00 0.00 0.00 57 1010.5
20260901224103 95 102 4.0 11.0 0.00 0.00 0.00 55 1010.4
20260901223603 95 116 4.0 11.0 0.00 0.00 0.00 55 1010.4
20260901223102 95 95 4.0 9.0 0.00 0.00 0.00 55 1010.3
20260901222602 95 129 4.0 10.0 0.00 0.00 0.00 54 1010.3
20260901221100 95 122 5.0 12.0 0.00 0.00 0.00 55 1010.2
20260901220600 96 104 4.0 12.0 0.00 0.00 0.00 52 1010.2
20260901220100 96 133 4.0 10.0 0.00 0.00 0.00 53 1010.1
20260901215557 96 136 4.0 12.0 0.00 0.00 0.00 54 1010.2
20260901215058 96 113 4.0 12.0 0.00 0.00 0.00 55 1010.3
20260901214057 96 71 4.0 11.0 0.00 0.00 0.00 53 1010.3
20260901213558 97 132 4.0 9.0 0.00 0.00 0.00 53 1010.3
20260901212557 97 174 4.0 11.0 0.00 0.00 0.00 53 1010.4
20260901212058 97 172 4.0 11.0 0.00 0.00 0.00 53 1010.5
20260901211557 97 65 4.0 9.0 0.00 0.00 0.00 53 1010.4
20260901211057 97 107 3.0 9.0 0.00 0.00 0.00 54 1010.5
20260901210557 98 79 3.0 7.0 0.00 0.00 0.00 52 1010.5
20260901205555 97 176 4.0 9.0 0.00 0.00 0.00 52 1010.6
20260901204554 98 115 3.0 8.0 0.00 0.00 0.00 52 1010.7
20260901204055 98 91 4.0 9.0 0.00 0.00 0.00 52 1010.8
20260901203555 99 164 3.0 9.0 0.00 0.00 0.00 49 1010.7
20260901203056 99 134 3.0 8.0 0.00 0.00 0.00 49 1010.9
20260901202055 98 155 3.0 7.0 0.00 0.00 0.00 49 1011.0
20260901201555 98 153 3.0 7.0 0.00 0.00 0.00 49 1011.1
20260901201055 99 98 4.0 7.0 0.00 0.00 0.00 50 1011.1
20260901200055 100 145 4.0 9.0 0.00 0.00 0.00 45 1011.2
20260901195556 99 181 4.0 9.0 0.00 0.00 0.00 44 1011.2
20260901195052 99 222 4.0 11.0 0.00 0.00 0.00 46 1011.3
20260901194554 99 106 4.0 11.0 0.00 0.00 0.00 45 1011.4
20260901194050 100 187 3.0 9.0 0.00 0.00 0.00 43 1011.5
20260901192050 99 113 3.0 8.0 0.00 0.00 0.00 44 1011.8
20260901191550 99 91 3.0 7.0 0.00 0.00 0.00 43 1011.9
20260901190051 98 30 4.0 10.0 0.00 0.00 0.00 46 1011.9
20260901185551 97 95 4.0 10.0 0.00 0.00 0.00 47 1012.0
20260901185050 98 71 4.0 9.0 0.00 0.00 0.00 46 1012.0
20260901184050 98 49 2.0 6.0 0.00 0.00 0.00 46 1012.2
20260901183550 98 0 2.0 6.0 0.00 0.00 0.00 45 1012.2
20260901183048 98 202 2.0 6.0 0.00 0.00 0.00 45 1012.3
20260901182545 98 137 2.0 7.0 0.00 0.00 0.00 44 1012.4
20260901182044 97 182 3.0 8.0 0.00 0.00 0.00 46 1012.5
20260901180542 96 136 2.0 6.0 0.00 0.00 0.00 47 1012.8
20260901180046 97 168 2.0 6.0 0.00 0.00 0.00 49 1013.0
20260901175541 97 153 2.0 8.0 0.00 0.00 0.00 48 1012.9
20260901175042 96 120 2.0 8.0 0.00 0.00 0.00 45 1013.0
20260901174542 96 134 3.0 9.0 0.00 0.00 0.00 50 1013.1
20260901174042 96 127 4.0 9.0 0.00 0.00 0.00 49 1013.2
20260901173542 95 109 3.0 9.0 0.00 0.00 0.00 46 1013.2
20260901173043 95 65 2.0 9.0 0.00 0.00 0.00 47 1013.3
20260901172543 96 99 3.0 6.0 0.00 0.00 0.00 48 1013.3
20260901172043 95 100 3.0 9.0 0.00 0.00 0.00 48 1013.4
20260901171542 95 189 4.0 9.0 0.00 0.00 0.00 48 1013.5
20260901171039 95 119 3.0 8.0 0.00 0.00 0.00 48 1013.5
20260901170540 95 125 2.0 6.0 0.00 0.00 0.00 49 1013.6
20260901170039 95 88 2.0 8.0 0.00 0.00 0.00 51 1013.6
20260901165541 94 139 4.0 9.0 0.00 0.00 0.00 51 1013.6
20260901165041 94 173 3.0 9.0 0.00 0.00 0.00 50 1013.6
20260901164537 94 177 3.0 6.0 0.00 0.00 0.00 53 1013.7
20260901163537 93 119 3.0 8.0 0.00 0.00 0.00 53 1013.8
20260901163037 93 167 3.0 8.0 0.00 0.00 0.00 55 1013.9
20260901162537 93 199 3.0 8.0 0.00 0.00 0.00 54 1013.9
20260901162038 92 110 2.0 6.0 0.00 0.00 0.00 57 1013.9
20260901161537 92 172 3.0 7.0 0.00 0.00 0.00 58 1013.9
20260901161037 92 114 4.0 7.0 0.00 0.00 0.00 58 1013.9
20260901160535 91 134 3.0 8.0 0.00 0.00 0.00 58 1013.8
20260901155531 91 194 3.0 8.0 0.00 0.00 0.00 60 1013.8
20260901154037 90 170 3.0 9.0 0.00 0.00 0.00 62 1013.6
20260901153032 90 192 2.0 7.0 0.00 0.00 0.00 63 1013.6
20260901152526 89 205 2.0 7.0 0.00 0.00 0.00 65 1013.7
20260901152035 89 126 2.0 6.0 0.00 0.00 0.00 68 1013.8
20260901151526 89 135 2.0 6.0 0.00 0.00 0.00 68 1013.9
20260901151038 88 188 2.0 9.0 0.00 0.00 0.00 69 1013.9
20260901150527 88 138 2.0 9.0 0.00 0.00 0.00 70 1013.9
20260901150035 88 172 3.0 11.0 0.00 0.00 0.00 70 1013.9
20260901145526 87 171 3.0 11.0 0.00 0.00 0.00 72 1013.9
20260901145035 87 96 2.0 8.0 0.00 0.00 0.00 73 1013.9
20260901144523 87 126 2.0 11.0 0.00 0.00 0.00 74 1013.9
20260901144035 86 177 3.0 11.0 0.00 0.00 0.00 75 1013.9
20260901143525 86 162 4.0 9.0 0.00 0.00 0.00 77 1013.8
20260901142525 86 188 3.0 9.0 0.00 0.00 0.00 78 1013.8
20260901141035 86 178 2.0 8.0 0.00 0.00 0.00 79 1013.9
20260901140528 86 126 2.0 5.0 0.00 0.00 0.00 78 1013.9
20260901140032 86 150 1.0 4.0 0.00 0.00 0.00 79 1014.0
20260901135527 85 178 1.0 4.0 0.00 0.00 0.00 79 1013.9